Mount Sterling, KY

4:50 AM EDT on September 23, 2017 (GMT -0400)
Mount Sterling-Montgomery County

Weather History for KIOB - February, 2014

Change the Weather History Date:

Sunday, February 16, 2014

  Actual Average Record
Temperature  
Mean Temperature 30 °F -  
Max Temperature 35 °F 48 °F 46 °F (2017)
Min Temperature 24 °F 28 °F 10 °F (2015)
Degree Days  
Heating Degree Days 36    
Moisture  
Dew Point 25 °F    
Average Humidity 83    
Maximum Humidity 93    
Minimum Humidity 74    
Precipitation  
Precipitation 0.04 in - - ()
Sea Level Pressure  
Sea Level Pressure 30.11 in    
Wind  
Wind Speed 6 mph (West)    
Max Wind Speed 13 mph    
Max Gust Speed 21 mph    
Visibility 9 miles    
Events Snow    
Averages and records for this station are not official NWS values.
T = Trace of Precipitation, MM = Missing Value Source: NWS Daily Summary

Daily Weather History Graph

Daily Weather History Graph

Search for Another Location

Airport or City:

Trip Planner

Search our weather history database for the weather conditions in past years. The results will help you decide how hot, cold, wet, or windy it might be!

Date:

Astronomy

Feb. 16, 2014 Rise Set
Actual Time 7:24 AM EST 6:15 PM EST
Civil Twilight 6:57 AM EST 6:42 PM EST
Nautical Twilight 6:27 AM EST 7:13 PM EST
Astronomical Twilight 5:56 AM EST 7:44 PM EST
Moon 8:09 PM EST (2/16) 7:56 AM EST (2/16)
Length of Visible Light 11h 44m
Length of Day
10h 50m
Full, 97% of the Moon is Illuminated
Feb 16
Full
Feb 22
Last Quarter
Mar 1
New
Mar 8
First Quarter
Mar 16
Full

Hourly Weather History & Observations

Time (EST) Temp. Windchill Dew Point Humidity Pressure Visibility Wind Dir Wind Speed Gust Speed Precip Events Conditions
12:15 AM 26.6 °F 21.2 °F 21.2 °F 80% 30.06 in 10.0 mi SSW 4.6 mph - N/A   Overcast
12:35 AM 26.6 °F 20.0 °F 21.2 °F 80% 30.06 in 7.0 mi SW 5.8 mph - N/A Snow Light Snow
12:55 AM 24.8 °F 16.9 °F 23.0 °F 93% 30.06 in 2.0 mi SW 6.9 mph - N/A Snow Light Snow
1:15 AM 24.8 °F 19.1 °F 23.0 °F 93% 30.06 in 1.0 mi WSW 4.6 mph - N/A Snow Light Snow
1:35 AM 24.8 °F 17.9 °F 23.0 °F 93% 30.06 in 4.0 mi SSW 5.8 mph - N/A Snow Light Snow
1:55 AM 24.8 °F 17.9 °F 23.0 °F 93% 30.04 in 1.5 mi South 5.8 mph - N/A Snow Light Snow
2:15 AM 24.8 °F 20.5 °F 23.0 °F 93% 30.05 in 2.5 mi SSW 3.5 mph - N/A Snow Light Snow
2:35 AM 24.8 °F 19.1 °F 23.0 °F 93% 30.04 in 7.0 mi South 4.6 mph - N/A Snow Light Snow
2:55 AM 26.6 °F 21.2 °F 23.0 °F 86% 30.04 in 10.0 mi South 4.6 mph - N/A   Overcast
3:15 AM 26.6 °F 20.0 °F 24.8 °F 93% 30.03 in 10.0 mi South 5.8 mph - N/A   Overcast
3:35 AM 26.6 °F 22.6 °F 24.8 °F 93% 30.03 in 10.0 mi SSW 3.5 mph - N/A   Overcast
3:55 AM 26.6 °F 22.6 °F 24.8 °F 93% 30.02 in 10.0 mi SSE 3.5 mph - N/A   Overcast
4:15 AM 26.6 °F 22.6 °F 24.8 °F 93% 30.01 in 10.0 mi SSE 3.5 mph - N/A   Overcast
4:35 AM 26.6 °F 22.6 °F 24.8 °F 93% 30.00 in 10.0 mi SSE 3.5 mph - N/A   Overcast
4:55 AM 24.8 °F - 23.0 °F 93% 30.00 in 10.0 mi Calm Calm - N/A   Overcast
5:15 AM 24.8 °F 20.5 °F 23.0 °F 93% 30.00 in 10.0 mi South 3.5 mph - N/A   Overcast
5:35 AM 24.8 °F 20.5 °F 23.0 °F 93% 29.99 in 10.0 mi SSW 3.5 mph - N/A   Overcast
5:55 AM 26.6 °F 22.6 °F 24.8 °F 93% 30.00 in 10.0 mi SW 3.5 mph - N/A   Overcast
6:15 AM 26.6 °F 20.0 °F 23.0 °F 86% 30.00 in 10.0 mi SSW 5.8 mph - N/A   Overcast
6:35 AM 26.6 °F 20.0 °F 24.8 °F 93% 29.99 in 10.0 mi West 5.8 mph - N/A   Overcast
6:55 AM 28.4 °F 21.2 °F 24.8 °F 86% 29.99 in 10.0 mi SW 6.9 mph - N/A   Overcast
7:15 AM 28.4 °F 22.2 °F 24.8 °F 86% 30.00 in 10.0 mi WSW 5.8 mph - N/A   Overcast
7:35 AM 28.4 °F 21.2 °F 26.6 °F 93% 30.00 in 10.0 mi WSW 6.9 mph - N/A   Overcast
7:55 AM 30.2 °F 21.9 °F 26.6 °F 86% 30.00 in 10.0 mi WSW 9.2 mph - N/A   Overcast
8:15 AM 30.2 °F 21.9 °F 26.6 °F 86% 30.01 in 10.0 mi WSW 9.2 mph - N/A   Overcast
8:35 AM 30.2 °F 21.9 °F 26.6 °F 86% 30.02 in 10.0 mi WSW 9.2 mph - N/A   Overcast
8:55 AM 30.2 °F 22.6 °F 26.6 °F 86% 30.03 in 10.0 mi West 8.1 mph - N/A   Overcast
9:15 AM 32.0 °F 23.0 °F 26.6 °F 80% 30.04 in 10.0 mi West 11.5 mph - N/A   Overcast
9:35 AM 32.0 °F 24.8 °F 26.6 °F 80% 30.05 in 10.0 mi West 8.1 mph - N/A   Overcast
9:55 AM 32.0 °F 24.8 °F 26.6 °F 80% 30.05 in 10.0 mi West 8.1 mph - N/A   Overcast
10:15 AM 32.0 °F 24.2 °F 26.6 °F 80% 30.06 in 10.0 mi WNW 9.2 mph - N/A   Overcast
10:35 AM 32.0 °F 25.6 °F 26.6 °F 80% 30.06 in 10.0 mi WNW 6.9 mph - N/A   Overcast
10:55 AM 32.0 °F 24.8 °F 26.6 °F 80% 30.07 in 10.0 mi West 8.1 mph - N/A   Overcast
11:15 AM 32.0 °F 24.2 °F 26.6 °F 80% 30.08 in 10.0 mi West 9.2 mph - N/A   Overcast
11:35 AM 33.8 °F 25.3 °F 26.6 °F 75% 30.08 in 10.0 mi West 11.5 mph - 0.01 in   Overcast
11:55 AM 33.8 °F 26.4 °F 26.6 °F 75% 30.09 in 10.0 mi WNW 9.2 mph 16.1 mph 0.02 in   Overcast
12:15 PM 33.8 °F 27.0 °F 26.6 °F 75% 30.09 in 10.0 mi West 8.1 mph - 0.01 in   Overcast
12:35 PM 33.8 °F 26.4 °F 28.4 °F 81% 30.09 in 10.0 mi West 9.2 mph - 0.02 in   Overcast
12:55 PM 35.6 °F 29.9 °F 28.4 °F 75% 30.09 in 10.0 mi West 6.9 mph - 0.02 in   Overcast
1:15 PM 33.8 °F 26.4 °F 28.4 °F 81% 30.08 in 10.0 mi WNW 9.2 mph - N/A   Overcast
1:35 PM 33.8 °F 25.3 °F 28.4 °F 81% 30.09 in 10.0 mi West 11.5 mph - N/A   Overcast
1:55 PM 33.8 °F 24.8 °F 28.4 °F 81% 30.09 in 10.0 mi West 12.7 mph 17.3 mph N/A   Overcast
2:15 PM 33.8 °F 25.8 °F 28.4 °F 81% 30.09 in 10.0 mi West 10.4 mph - N/A   Overcast
2:35 PM 35.6 °F 29.2 °F 28.4 °F 75% 30.10 in 10.0 mi WNW 8.1 mph - N/A   Overcast
2:55 PM 35.6 °F 27.1 °F 28.4 °F 75% 30.10 in 10.0 mi NW 12.7 mph 20.7 mph N/A   Overcast
3:15 PM 35.6 °F 27.5 °F 28.4 °F 75% 30.11 in 10.0 mi NW 11.5 mph - N/A   Overcast
3:35 PM 33.8 °F 25.8 °F 28.4 °F 81% 30.12 in 10.0 mi NW 10.4 mph 18.4 mph N/A   Overcast
3:55 PM 33.8 °F 27.0 °F 28.4 °F 81% 30.15 in 10.0 mi WNW 8.1 mph 16.1 mph N/A   Overcast
4:15 PM 33.8 °F 26.4 °F 28.4 °F 81% 30.15 in 10.0 mi NW 9.2 mph - N/A   Overcast
4:35 PM 33.8 °F 27.7 °F 28.4 °F 81% 30.15 in 10.0 mi NNW 6.9 mph - N/A   Overcast
4:55 PM 33.8 °F 28.6 °F 28.4 °F 81% 30.16 in 10.0 mi NNW 5.8 mph - N/A   Overcast
5:15 PM 33.8 °F 25.8 °F 26.6 °F 75% 30.16 in 10.0 mi NNW 10.4 mph - N/A   Overcast
5:35 PM 33.8 °F 27.7 °F 28.4 °F 81% 30.17 in 10.0 mi NNW 6.9 mph - N/A   Mostly Cloudy
5:55 PM 32.0 °F 25.6 °F 26.6 °F 80% 30.18 in 10.0 mi NNW 6.9 mph - N/A   Overcast
6:15 PM 32.0 °F 27.5 °F 26.6 °F 80% 30.20 in 10.0 mi NW 4.6 mph - N/A   Overcast
6:35 PM 32.0 °F 26.4 °F 26.6 °F 80% 30.22 in 10.0 mi NW 5.8 mph - N/A   Overcast
6:55 PM 32.0 °F 27.5 °F 26.6 °F 80% 30.23 in 10.0 mi NNW 4.6 mph - N/A   Overcast
7:15 PM 32.0 °F 27.5 °F 26.6 °F 80% 30.23 in 10.0 mi North 4.6 mph - N/A   Overcast
7:35 PM 32.0 °F - 26.6 °F 80% 30.24 in 10.0 mi Calm Calm - N/A   Overcast
7:55 PM 32.0 °F 28.7 °F 26.6 °F 80% 30.25 in 10.0 mi North 3.5 mph - N/A   Overcast
8:15 PM 32.0 °F 26.4 °F 26.6 °F 80% 30.25 in 10.0 mi NNE 5.8 mph - N/A   Overcast
8:35 PM 30.2 °F 23.4 °F 26.6 °F 86% 30.26 in 10.0 mi NE 6.9 mph - N/A   Overcast
8:55 PM 30.2 °F 22.6 °F 24.8 °F 80% 30.26 in 10.0 mi NE 8.1 mph - N/A   Overcast
9:15 PM 30.2 °F 22.6 °F 24.8 °F 80% 30.27 in 10.0 mi ENE 8.1 mph - N/A   Overcast
9:35 PM 30.2 °F 23.4 °F 23.0 °F 75% 30.27 in 10.0 mi NE 6.9 mph - N/A   Overcast
9:55 PM 30.2 °F 21.9 °F 23.0 °F 75% 30.27 in 10.0 mi NE 9.2 mph - N/A   Overcast
10:15 PM 28.4 °F 20.4 °F 23.0 °F 80% 30.28 in 10.0 mi ENE 8.1 mph - N/A   Overcast
10:35 PM 28.4 °F 19.7 °F 21.2 °F 74% 30.27 in 10.0 mi ENE 9.2 mph - N/A   Overcast
10:55 PM 28.4 °F 20.4 °F 21.2 °F 74% 30.27 in 10.0 mi ENE 8.1 mph - N/A   Overcast
11:15 PM 26.6 °F 17.5 °F 21.2 °F 80% 30.27 in 10.0 mi ENE 9.2 mph - N/A   Mostly Cloudy
11:35 PM 26.6 °F 18.2 °F 21.2 °F 80% 30.27 in 10.0 mi NE 8.1 mph - N/A   Scattered Clouds
11:55 PM 26.6 °F 16.8 °F 19.4 °F 74% 30.27 in 10.0 mi ENE 10.4 mph - N/A   Clear